EN

Hourly Weather Abramiha

Today, 14 May, Friday

Time Temperature Precipitation Wind Pressure Humidity
00:00 +6°C° 0 mm 2 mps 738 mmHg 94%
01:00 +6°C° 0 mm 2 mps 738 mmHg 94%
02:00 +6°C° 0 mm 2 mps 738 mmHg 94%
03:00 +6°C° 0 mm 2 mps 738 mmHg 94%
04:00 +7°C° 0 mm 3 mps 738 mmHg 93%
05:00 +7°C° 0 mm 3 mps 738 mmHg 93%
06:00 +8°C° 0 mm 3 mps 738 mmHg 89%
07:00 +10°C° 0 mm 3 mps 738 mmHg 85%
08:00 +11°C° 0 mm 4 mps 739 mmHg 83%
09:00 +12°C° 0 mm 4 mps 738 mmHg 78%
10:00 +14°C° 0 mm 4 mps 738 mmHg 73%
11:00 +15°C° 0 mm 4 mps 738 mmHg 68%
12:00 +17°C° 0 mm 4 mps 738 mmHg 64%
13:00 +18°C° 0 mm 4 mps 737 mmHg 61%
14:00 +19°C° 0 mm 4 mps 737 mmHg 57%
15:00 +19°C° 0.3 mm 4 mps 736 mmHg 63%
16:00 +19°C° 0.3 mm 4 mps 736 mmHg 68%
17:00 +18°C° 0.3 mm 4 mps 735 mmHg 74%
18:00 +17°C° 0.2 mm 4 mps 735 mmHg 81%
19:00 +14°C° 0.2 mm 4 mps 735 mmHg 87%
20:00 +13°C° 0.2 mm 3 mps 735 mmHg 94%
21:00 +13°C° 0.7 mm 3 mps 734 mmHg 95%
22:00 +12°C° 0.7 mm 3 mps 734 mmHg 97%
23:00 +12°C° 0.7 mm 3 mps 734 mmHg 98%

Tomorrow, 15 May, Saturday

Time Temperature Precipitation Wind Pressure Humidity
00:00 +12°C° 0 mm 3 mps 734 mmHg 98%
01:00 +12°C° 0 mm 3 mps 733 mmHg 97%
02:00 +12°C° 0 mm 3 mps 733 mmHg 97%
03:00 +12°C° 0 mm 3 mps 733 mmHg 97%
04:00 +12°C° 0 mm 3 mps 733 mmHg 97%
05:00 +11°C° 0 mm 3 mps 733 mmHg 97%
06:00 +13°C° 0 mm 3 mps 733 mmHg 92%
07:00 +14°C° 0 mm 3 mps 733 mmHg 86%
08:00 +15°C° 0 mm 4 mps 734 mmHg 81%
09:00 +17°C° 0.4 mm 4 mps 734 mmHg 76%
10:00 +17°C° 0.4 mm 5 mps 734 mmHg 72%
11:00 +19°C° 0.4 mm 5 mps 734 mmHg 67%
12:00 +19°C° 0.4 mm 5 mps 734 mmHg 67%
13:00 +19°C° 0.4 mm 5 mps 734 mmHg 67%
14:00 +19°C° 0.4 mm 5 mps 733 mmHg 66%
15:00 +17°C° 0.7 mm 5 mps 733 mmHg 71%
16:00 +18°C° 0.7 mm 4 mps 733 mmHg 75%
17:00 +17°C° 0.7 mm 4 mps 733 mmHg 80%
18:00 +15°C° 0.2 mm 4 mps 733 mmHg 84%
19:00 +14°C° 0.2 mm 3 mps 734 mmHg 89%
20:00 +12°C° 0.2 mm 3 mps 734 mmHg 94%
21:00 +12°C° 0 mm 3 mps 734 mmHg 95%
22:00 +12°C° 0 mm 3 mps 734 mmHg 95%
23:00 +11°C° 0 mm 3 mps 734 mmHg 96%

Day after tomorrow, 16 May, Sunday

Time Temperature Precipitation Wind Pressure Humidity
00:00 +11°C° 0 mm 3 mps 734 mmHg 96%
01:00 +11°C° 0 mm 3 mps 734 mmHg 96%
02:00 +10°C° 0 mm 3 mps 734 mmHg 96%
03:00 +11°C° 0 mm 3 mps 735 mmHg 96%
04:00 +11°C° 0 mm 3 mps 735 mmHg 95%
05:00 +11°C° 0 mm 3 mps 735 mmHg 94%
06:00 +12°C° 0 mm 4 mps 735 mmHg 91%
07:00 +13°C° 0 mm 4 mps 736 mmHg 87%
08:00 +14°C° 0 mm 4 mps 736 mmHg 83%
09:00 +15°C° 0 mm 4 mps 736 mmHg 81%
10:00 +15°C° 0 mm 4 mps 736 mmHg 78%
11:00 +17°C° 0 mm 4 mps 737 mmHg 76%
12:00 +17°C° 0.2 mm 4 mps 737 mmHg 74%
13:00 +18°C° 0.2 mm 4 mps 737 mmHg 72%
14:00 +19°C° 0.2 mm 3 mps 737 mmHg 70%
15:00 +19°C° 0.1 mm 3 mps 737 mmHg 70%
16:00 +19°C° 0.1 mm 3 mps 737 mmHg 70%
17:00 +19°C° 0.1 mm 2 mps 737 mmHg 70%
18:00 +17°C° 0 mm 2 mps 737 mmHg 76%
19:00 +16°C° 0 mm 2 mps 737 mmHg 83%
20:00 +14°C° 0 mm 2 mps 737 mmHg 89%
21:00 +13°C° 0 mm 2 mps 737 mmHg 90%
22:00 +13°C° 0 mm 2 mps 737 mmHg 91%
23:00 +13°C° 0 mm 1 mps 737 mmHg 91%

17 May, Monday

Time Temperature Precipitation Wind Pressure Humidity
00:00 +12°C° 0 mm 2 mps 738 mmHg 92%
01:00 +12°C° 0 mm 2 mps 738 mmHg 92%
02:00 +12°C° 0 mm 2 mps 738 mmHg 93%
03:00 +12°C° 0 mm 2 mps 738 mmHg 93%
04:00 +12°C° 0 mm 2 mps 737 mmHg 92%
05:00 +12°C° 0 mm 2 mps 737 mmHg 92%
06:00 +14°C° 0 mm 2 mps 737 mmHg 85%
07:00 +16°C° 0 mm 3 mps 737 mmHg 78%
08:00 +18°C° 0 mm 3 mps 738 mmHg 72%
09:00 +20°C° 0 mm 4 mps 737 mmHg 68%
10:00 +21°C° 0 mm 4 mps 737 mmHg 65%
11:00 +22°C° 0 mm 4 mps 736 mmHg 62%
12:00 +23°C° 0 mm 5 mps 736 mmHg 61%
13:00 +25°C° 0 mm 5 mps 735 mmHg 60%
14:00 +24°C° 0 mm 6 mps 735 mmHg 59%
15:00 +24°C° 0.1 mm 6 mps 734 mmHg 62%
16:00 +24°C° 0.1 mm 6 mps 733 mmHg 65%
17:00 +24°C° 0.1 mm 6 mps 733 mmHg 68%
18:00 +23°C° 0.1 mm 6 mps 732 mmHg 71%
19:00 +21°C° 0.1 mm 6 mps 732 mmHg 73%
20:00 +20°C° 0.1 mm 6 mps 732 mmHg 76%
21:00 +19°C° 0.1 mm 5 mps 732 mmHg 80%
22:00 +19°C° 0.1 mm 5 mps 731 mmHg 83%
23:00 +17°C° 0.1 mm 5 mps 731 mmHg 87%

18 May, Tuesday

Time Temperature Precipitation Wind Pressure Humidity
00:00 +17°C° 0.2 mm 4 mps 731 mmHg 89%
01:00 +17°C° 0.2 mm 4 mps 731 mmHg 91%
02:00 +16°C° 0.2 mm 3 mps 731 mmHg 94%
03:00 +16°C° 0.4 mm 3 mps 731 mmHg 95%
04:00 +16°C° 0.4 mm 2 mps 731 mmHg 96%
05:00 +16°C° 0.4 mm 2 mps 731 mmHg 97%
06:00 +16°C° 0.4 mm 2 mps 731 mmHg 96%
07:00 +18°C° 0.4 mm 1 mps 731 mmHg 94%
08:00 +18°C° 0.4 mm 1 mps 732 mmHg 93%
09:00 +18°C° 0.4 mm 1 mps 732 mmHg 91%
10:00 +18°C° 0.4 mm 1 mps 732 mmHg 90%
11:00 +19°C° 0.4 mm 1 mps 732 mmHg 88%
12:00 +19°C° 0.3 mm 1 mps 732 mmHg 86%
13:00 +18°C° 0.3 mm 2 mps 732 mmHg 84%
14:00 +19°C° 0.3 mm 2 mps 732 mmHg 81%
15:00 +19°C° 0.1 mm 2 mps 732 mmHg 80%
16:00 +20°C° 0.1 mm 1 mps 732 mmHg 79%
17:00 +20°C° 0.1 mm 1 mps 732 mmHg 79%
18:00 +19°C° 0.2 mm 1 mps 732 mmHg 82%
19:00 +18°C° 0.2 mm 1 mps 732 mmHg 86%
20:00 +16°C° 0.2 mm 1 mps 732 mmHg 90%
21:00 +15°C° 0.2 mm 1 mps 732 mmHg 91%
22:00 +15°C° 0.2 mm 1 mps 732 mmHg 92%
23:00 +14°C° 0.2 mm 1 mps 732 mmHg 94%

19 May, Wednesday

Time Temperature Precipitation Wind Pressure Humidity
00:00 +14°C° 0.2 mm 1 mps 732 mmHg 94%
01:00 +13°C° 0.2 mm 1 mps 732 mmHg 94%
02:00 +13°C° 0.2 mm 1 mps 732 mmHg 95%
03:00 +13°C° 0.1 mm 1 mps 732 mmHg 94%
04:00 +13°C° 0.1 mm 1 mps 732 mmHg 94%
05:00 +13°C° 0.1 mm 1 mps 732 mmHg 94%
06:00 +14°C° 0.3 mm 2 mps 732 mmHg 92%
07:00 +15°C° 0.3 mm 2 mps 731 mmHg 89%
08:00 +16°C° 0.3 mm 3 mps 731 mmHg 86%
09:00 +16°C° 1.7 mm 3 mps 731 mmHg 88%
10:00 +14°C° 1.7 mm 3 mps 731 mmHg 89%
11:00 +14°C° 1.7 mm 3 mps 731 mmHg 90%
12:00 +14°C° 0.8 mm 3 mps 731 mmHg 89%
13:00 +15°C° 0.8 mm 4 mps 730 mmHg 87%
14:00 +15°C° 0.8 mm 4 mps 730 mmHg 86%
15:00 +15°C° 1.5 mm 4 mps 730 mmHg 87%
16:00 +15°C° 1.5 mm 5 mps 729 mmHg 87%
17:00 +15°C° 1.5 mm 5 mps 729 mmHg 87%
18:00 +14°C° 0.4 mm 5 mps 730 mmHg 89%
19:00 +13°C° 0.4 mm 5 mps 731 mmHg 91%
20:00 +11°C° 0.4 mm 4 mps 731 mmHg 92%
21:00 +11°C° 0 mm 4 mps 732 mmHg 93%
22:00 +11°C° 0 mm 4 mps 733 mmHg 93%
23:00 +11°C° 0 mm 4 mps 733 mmHg 93%
Show more